User: anonymous   Login
Location: Quebec
(46.8000°N, 71.2500°W)
Time: 09:15:12
(UTC-05:00)
Language:

Envisat - Orbit

View from above orbital plane
View from above orbital plane
View from above satellite
View from above satellite

Ground track
Ground track

The orbit data is extracted from the following two-line orbital elements,

1 27386U 02009A   17348.75353190 -.00000032  00000-0  31402-5 0  9994
2 27386  98.2093  26.2755 0001520  82.3706 277.7640 14.37910518827021
Epoch (UTC): 14 December 2017 18:05:05
Eccentricity: 0.0001520
inclination: 98.2093°
perigee height: 764 km
apogee height: 766 km
right ascension of ascending node: 26.2755°
argument of perigee: 82.3706°
revolutions per day: 14.37910518
mean anomaly at epoch: 277.7640°
orbit number at epoch: 82702

The dashed part of the orbit path shows where the satellite is in the earth's shadow,  

DLR